Regional Weather Roundup
Issued by NWS Binghamton, NY

Home | Current Version | Previous Version | Text Only | Print | Product List | Glossary On
Versions: 1 2 3 4 5 6 7 8 9 10 11 12 13 14 15 16 17 18 19 20 21 22 23 24 25 26 27 28 29 30 31 32 33 34 35 36 37 38 39 40 41 42 43 44 45 46 47 48 49 50
000
ASUS41 KBGM 040510
RWRBGM
RWRBGM
BINGHAMTON REGIONAL WEATHER ROUNDUP
NATIONAL WEATHER SERVICE BINGHAMTON NY
100 AM EDT SAT JUL 04 2015

Note: "fair" indicates few or no clouds below 12,000 feet with no
significant weather and/or obstructions to visibility.

* = Station(s) that does not report precipitation, such as rain,
snow, etc, also no thunder or fog.

!NYZ009-015>018-022>025-036-037-044>046-055>057-062-040600
...CENTRAL NEW YORK...

CITY           SKY/WX    TMP DP  RH WIND       PRES   REMARKS
BINGHAMTON     MOCLDY    62  55  77 S3        29.98R
CORTLAND       FAIR      59  55  88 CALM      29.98S
DANSVILLE      CLOUDY    62  57  83 S3        29.93F
ELMIRA         MOCLDY    62  59  90 CALM      29.94S
ITHACA         MOCLDY    61  55  80 E3        29.97S
MONTICELLO     CLOUDY    61  55  82 NE3       30.01S
NORWICH        MOCLDY    54  52  94 CALM      30.00R
PENN YAN       CLOUDY    62  57  83 CALM      29.94S
ROME           PTCLDY    57  50  77 CALM      29.97S
SIDNEY         CLEAR     61  59  94 CALM      29.99R
SYRACUSE       MOCLDY    63  55  75 E5        29.93F
$$

!PAZ038>040-043-044-047-048-072-040600
...NORTHEAST PENNSYLVANIA...

CITY           SKY/WX    TMP DP  RH WIND       PRES   REMARKS
HAZLETON       CLOUDY    68  61  77 SE5       30.02S
SCRANTON       CLOUDY    68  59  73 SE3       29.97R
TOWANDA*       CLEAR     63  63 100 MISG      29.96S
$$
&&
KEY
WCI = WIND CHILL INDEX
VSB = VISIBILITY
HX  = HEAT INDEX
$$



USA.gov is the U.S. government's official web portal to all federal, state and local government web resources and services.